Time,TemperatureF,DewpointF,PressureIn,WindDirection,WindDirectionDegrees,WindSpeedMPH,WindSpeedGustMPH,Humidity,HourlyPrecipIn,Conditions,Clouds,dailyrainin,SoftwareType,DateUTC
2013-07-17 00:22:00,76.0,76.0,-100.00,East,100,0.0,0.0,99,-99.99,,,-99.99,,2013-07-17 05:22:00,
2013-07-17 00:43:00,75.0,75.0,-100.00,East,100,0.0,0.0,99,-99.99,,,-99.99,,2013-07-17 05:43:00,
2013-07-17 00:52:00,75.0,75.0,-100.00,East,100,0.0,0.0,99,-99.99,,,-99.99,,2013-07-17 05:52:00,
2013-07-17 01:22:00,75.0,74.0,-100.00,ENE,70,0.0,0.0,99,-99.99,,,-99.99,,2013-07-17 06:22:00,
2013-07-17 01:43:00,74.0,73.0,-100.00,SE,125,0.0,0.0,99,-99.99,,,-99.99,,2013-07-17 06:43:00,
2013-07-17 01:52:00,74.0,73.0,-100.00,SE,125,0.0,0.0,99,-99.99,,,-99.99,,2013-07-17 06:52:00,
2013-07-17 02:22:00,73.0,73.0,-100.00,East,95,0.0,0.0,99,-99.99,,,-99.99,,2013-07-17 07:22:00,
2013-07-17 02:42:00,73.0,73.0,-100.00,SW,215,0.0,0.0,99,-99.99,,,-99.99,,2013-07-17 07:42:00,
2013-07-17 02:52:00,73.0,73.0,-100.00,SW,215,0.0,0.0,99,-99.99,,,-99.99,,2013-07-17 07:52:00,
2013-07-17 03:22:00,72.0,72.0,-100.00,East,95,0.0,0.0,99,-99.99,,,-99.99,,2013-07-17 08:22:00,
2013-07-17 03:43:00,72.0,72.0,-100.00,East,85,0.0,0.0,99,-99.99,,,-99.99,,2013-07-17 08:43:00,
2013-07-17 03:53:00,72.0,72.0,-100.00,East,85,0.0,0.0,99,-99.99,,,-99.99,,2013-07-17 08:53:00,
2013-07-17 04:12:00,72.0,71.0,-100.00,ESE,110,0.0,0.0,99,-99.99,,,-99.99,,2013-07-17 09:12:00,
2013-07-17 04:22:00,72.0,71.0,-100.00,ESE,110,0.0,0.0,99,-99.99,,,-99.99,,2013-07-17 09:22:00,
2013-07-17 04:52:00,72.0,71.0,-100.00,ESE,110,0.0,0.0,99,-99.99,,,-99.99,,2013-07-17 09:52:00,
2013-07-17 05:22:00,71.0,71.0,-100.00,North,0,0.0,0.0,99,-99.99,,,-99.99,,2013-07-17 10:22:00,
2013-07-17 05:52:00,71.0,71.0,-100.00,SSE,150,0.0,0.0,99,-99.99,,,-99.99,,2013-07-17 10:52:00,
2013-07-17 06:00:00,71.0,70.0,-100.00,ESE,105,0.0,0.0,99,-99.99,,,-99.99,,2013-07-17 11:00:00,
2013-07-17 06:11:00,71.0,70.0,-100.00,ESE,105,0.0,0.0,99,-99.99,,,-99.99,,2013-07-17 11:11:00,
2013-07-17 06:22:00,71.0,71.0,-100.00,ENE,60,0.0,0.0,99,-99.99,,,-99.99,,2013-07-17 11:22:00,
2013-07-17 06:42:00,71.0,70.0,-100.00,ESE,105,0.0,0.0,99,-99.99,,,-99.99,,2013-07-17 11:42:00,
2013-07-17 06:52:00,71.0,70.0,-100.00,ESE,105,0.0,0.0,99,-99.99,,,-99.99,,2013-07-17 11:52:00,
2013-07-17 07:12:00,73.0,72.0,-100.00,ESE,105,0.0,0.0,99,-99.99,,,-99.99,,2013-07-17 12:12:00,
2013-07-17 07:22:00,73.0,72.0,-100.00,ESE,105,0.0,0.0,99,-99.99,,,-99.99,,2013-07-17 12:22:00,
2013-07-17 07:53:00,75.0,75.0,-100.00,South,175,0.0,0.0,99,-99.99,,,-99.99,,2013-07-17 12:53:00,
2013-07-17 08:22:00,80.0,78.0,-100.00,East,90,0.0,0.0,93,-99.99,,,-99.99,,2013-07-17 13:22:00,
2013-07-17 09:43:00,89.0,77.0,-100.00,SW,230,0.0,0.0,67,-99.99,,,-99.99,,2013-07-17 14:43:00,
2013-07-17 09:52:00,89.0,77.0,-100.00,SW,230,0.0,0.0,67,-99.99,,,-99.99,,2013-07-17 14:52:00,
2013-07-17 10:30:00,93.0,76.0,-100.00,West,265,0.0,0.0,59,-99.99,,,-99.99,,2013-07-17 15:30:00,
2013-07-17 11:02:00,93.0,76.0,-100.00,West,265,0.0,0.0,59,-99.99,,,-99.99,,2013-07-17 16:02:00,
2013-07-17 11:11:00,93.0,76.0,-100.00,West,265,0.0,0.0,59,-99.99,,,-99.99,,2013-07-17 16:11:00,
2013-07-17 11:22:00,93.0,76.0,-100.00,West,265,0.0,0.0,59,-99.99,,,-99.99,,2013-07-17 16:22:00,
2013-07-17 11:43:00,95.0,75.0,-100.00,North,355,0.0,0.0,53,-99.99,,,-99.99,,2013-07-17 16:43:00,
2013-07-17 11:52:00,95.0,75.0,-100.00,North,355,0.0,0.0,53,-99.99,,,-99.99,,2013-07-17 16:52:00,
2013-07-17 12:22:00,97.0,74.0,-100.00,East,95,0.0,0.0,49,-99.99,,,-99.99,,2013-07-17 17:22:00,
2013-07-17 12:43:00,96.0,73.0,-100.00,ESE,110,0.0,0.0,48,-99.99,,,-99.99,,2013-07-17 17:43:00,
2013-07-17 12:52:00,96.0,73.0,-100.00,ESE,110,0.0,0.0,48,-99.99,,,-99.99,,2013-07-17 17:52:00,
2013-07-17 13:22:00,97.0,73.0,-100.00,West,260,0.0,0.0,47,-99.99,,,-99.99,,2013-07-17 18:22:00,
2013-07-17 13:43:00,95.0,72.0,-100.00,SW,230,0.0,0.0,48,-99.99,,,-99.99,,2013-07-17 18:43:00,
2013-07-17 13:52:00,95.0,72.0,-100.00,SW,230,0.0,0.0,48,-99.99,,,-99.99,,2013-07-17 18:52:00,
2013-07-17 14:22:00,93.0,72.0,-100.00,East,100,0.0,0.0,51,-99.99,,,-99.99,,2013-07-17 19:22:00,
2013-07-17 14:43:00,97.0,72.0,-100.00,SE,140,0.0,0.0,45,-99.99,,,-99.99,,2013-07-17 19:43:00,
2013-07-17 14:53:00,97.0,72.0,-100.00,SE,140,0.0,0.0,45,-99.99,,,-99.99,,2013-07-17 19:53:00,
2013-07-17 15:11:00,97.0,73.0,-100.00,ENE,70,0.0,0.0,46,-99.99,,,-99.99,,2013-07-17 20:11:00,
2013-07-17 15:22:00,97.0,73.0,-100.00,ENE,70,0.0,0.0,46,-99.99,,,-99.99,,2013-07-17 20:22:00,
2013-07-17 15:43:00,98.0,73.0,-100.00,SSW,210,0.0,0.0,46,-99.99,,,-99.99,,2013-07-17 20:43:00,
2013-07-17 15:53:00,98.0,73.0,-100.00,SSW,210,0.0,0.0,46,-99.99,,,-99.99,,2013-07-17 20:53:00,
2013-07-17 16:12:00,95.0,74.0,-100.00,SW,225,0.0,0.0,50,-99.99,,,-99.99,,2013-07-17 21:12:00,
2013-07-17 16:22:00,95.0,74.0,-100.00,SW,225,0.0,0.0,50,-99.99,,,-99.99,,2013-07-17 21:22:00,
2013-07-17 16:53:00,92.0,73.0,-100.00,South,190,0.0,0.0,53,-99.99,,,-99.99,,2013-07-17 21:53:00,
2013-07-17 17:22:00,94.0,73.0,-100.00,NE,50,0.0,0.0,51,-99.99,,,-99.99,,2013-07-17 22:22:00,
2013-07-17 17:43:00,92.0,72.0,-100.00,South,175,0.0,0.0,52,-99.99,,,-99.99,,2013-07-17 22:43:00,
2013-07-17 17:53:00,92.0,72.0,-100.00,South,175,0.0,0.0,52,-99.99,,,-99.99,,2013-07-17 22:53:00,
2013-07-17 18:22:00,92.0,72.0,-100.00,South,175,0.0,0.0,53,-99.99,,,-99.99,,2013-07-17 23:22:00,
2013-07-17 18:43:00,91.0,72.0,-100.00,SSW,195,0.0,0.0,53,-99.99,,,-99.99,,2013-07-17 23:43:00,
2013-07-17 18:52:00,91.0,72.0,-100.00,SSW,195,0.0,0.0,53,-99.99,,,-99.99,,2013-07-17 23:52:00,
2013-07-17 19:01:00,92.0,74.0,-100.00,West,275,0.0,0.0,56,-99.99,,,-99.99,,2013-07-18 00:01:00,
2013-07-17 19:11:00,91.0,73.0,-100.00,West,265,0.0,0.0,56,-99.99,,,-99.99,,2013-07-18 00:11:00,
2013-07-17 19:22:00,91.0,73.0,-100.00,West,265,0.0,0.0,56,-99.99,,,-99.99,,2013-07-18 00:22:00,
2013-07-17 19:43:00,90.0,74.0,-100.00,SW,230,0.0,0.0,59,-99.99,,,-99.99,,2013-07-18 00:43:00,
2013-07-17 19:52:00,90.0,74.0,-100.00,SW,230,0.0,0.0,59,-99.99,,,-99.99,,2013-07-18 00:52:00,
2013-07-17 20:01:00,89.0,74.0,-100.00,SSW,200,0.0,0.0,63,-99.99,,,-99.99,,2013-07-18 01:01:00,
2013-07-17 20:22:00,88.0,77.0,-100.00,South,190,0.0,0.0,70,-99.99,,,-99.99,,2013-07-18 01:22:00,
2013-07-17 20:32:00,86.0,78.0,-100.00,South,190,0.0,0.0,76,-99.99,,,-99.99,,2013-07-18 01:32:00,
2013-07-17 20:53:00,86.0,79.0,-100.00,SE,140,0.0,0.0,80,-99.99,,,-99.99,,2013-07-18 01:53:00,
2013-07-17 21:11:00,84.0,80.0,-100.00,SSE,165,0.0,0.0,88,-99.99,,,-99.99,,2013-07-18 02:11:00,
2013-07-17 21:22:00,84.0,80.0,-100.00,SSE,165,0.0,0.0,88,-99.99,,,-99.99,,2013-07-18 02:22:00,
2013-07-17 21:43:00,83.0,80.0,-100.00,South,180,0.0,0.0,92,-99.99,,,-99.99,,2013-07-18 02:43:00,
2013-07-17 21:52:00,83.0,80.0,-100.00,South,180,0.0,0.0,92,-99.99,,,-99.99,,2013-07-18 02:52:00,
2013-07-17 22:11:00,81.0,80.0,-100.00,South,170,0.0,0.0,96,-99.99,,,-99.99,,2013-07-18 03:11:00,
2013-07-17 22:22:00,81.0,80.0,-100.00,South,170,0.0,0.0,96,-99.99,,,-99.99,,2013-07-18 03:22:00,
2013-07-17 22:52:00,81.0,80.0,-100.00,South,170,0.0,0.0,96,-99.99,,,-99.99,,2013-07-18 03:52:00,
2013-07-17 23:22:00,81.0,79.0,-100.00,SSW,205,0.0,0.0,96,-99.99,,,-99.99,,2013-07-18 04:22:00,
2013-07-17 23:43:00,80.0,79.0,-100.00,SW,220,0.0,0.0,96,-99.99,,,-99.99,,2013-07-18 04:43:00,
2013-07-17 23:52:00,80.0,79.0,-100.00,SW,220,0.0,0.0,96,-99.99,,,-99.99,,2013-07-18 04:52:00,